Flag for Cabo Verde Weather past 2 weeks in Santa Maria, Cabo Verde

Now
79 °F

Passing clouds.


Feels Like: 81 °F
Forecast: N/A
Wind: 12 mph from Northeast

Location: Sal

Current Time: Oct 1, 2014 at 9:58:01 PM

Latest Report: Oct 1, 2014 at 9:00 PM


Visibility: N/A

Pressure: 30.01 "Hg

Humidity: 74%

Dew point: 70 °F

Location of Santa MariaLocation

Historic Weather in Santa Maria — Graph

°F

Santa Maria temperature yesterday

Maximum temperature yesterday: 88 °F (at 12:00 PM)
Minimum temperature yesterday: 79 °F (at 2:00 AM)
Average temperature yesterday: 82 °F

Past Weeks' High & Low Weather Summary

 TemperatureHumidityPressure
High93 °F (Sep 28, 2:00 PM)100% (Sep 21, 9:00 AM)30.04 "Hg (Sep 21, 9:00 AM)
Low75 °F (Sep 21, 8:00 AM)46% (Sep 28, 1:00 PM)29.83 "Hg (Sep 22, 5:00 AM)
Average81 °F79%29.94 "Hg
* Reported Sep 16 8:00 PM — Oct 1 8:00 PM, Santa Maria, Weather by CustomWeather, © 2014

Note: Actual official high and low records may vary slightly from our data, if they occured in-between our weather recording intervals... More about our weather records

Advertising

Santa Maria weather history for previous 24 hours

 ConditionsComfort  
Time TempWeatherWind HumidityBarometerVisibility
8:00 PM
Oct 1
79 °FPassing clouds.12 mph74%29.98 "HgN/A
7:00 PM79 °FPassing clouds.14 mph70%29.95 "HgN/A
6:00 PM81 °FPassing clouds.15 mph70%29.95 "HgN/A
5:00 PM82 °FPassing clouds.17 mph66%29.95 "HgN/A
4:00 PM82 °FPartly sunny.17 mph66%29.95 "HgN/A
3:00 PM84 °FPartly sunny.18 mph62%29.95 "HgN/A
2:00 PM84 °FPartly sunny.17 mph62%29.98 "HgN/A
1:00 PM86 °FPartly sunny.18 mph62%30.01 "HgN/A
12:00 PM86 °FPartly sunny.21 mph62%30.01 "HgN/A
11:00 AM84 °FPartly sunny.16 mph66%30.01 "HgN/A
10:00 AM82 °FScattered clouds.20 mph70%30.01 "HgN/A
9:00 AM81 °FScattered clouds.18 mph70%30.01 "HgN/A
8:00 AM79 °FPassing clouds.21 mph74%29.98 "HgN/A
7:00 AM77 °FPassing clouds.17 mph79%29.98 "HgN/A
6:00 AM77 °FScattered clouds.15 mph79%29.98 "HgN/A
5:00 AM77 °FScattered clouds.15 mph79%29.95 "HgN/A
4:00 AM77 °FPassing clouds.15 mph79%29.98 "HgN/A
3:00 AM77 °FPassing clouds.13 mph83%29.98 "HgN/A
2:00 AM77 °FPassing clouds.13 mph83%29.98 "HgN/A
1:00 AM77 °FPassing clouds.12 mph79%29.98 "HgN/A
12:00 AM77 °FPassing clouds.15 mph79%30.01 "HgN/A
11:00 PM
Sep 30
79 °FPassing clouds.14 mph79%30.01 "HgN/A
10:00 PM79 °FPassing clouds.20 mph79%30.01 "HgN/A
9:00 PM79 °FPassing clouds.21 mph79%29.98 "HgN/A
Weather by CustomWeather, © 2014

See weather overviewHow to use our weather pages